This demonstration page uses our WeatherBlox Daily Observations layout. Learn more.

Left ArrowRight Arrow

Hourly Observations for September 4, 2017

Temp ( °F °C ) Dew Point ( °F °C ) Humidity (%) Winds ( mph kmh ) Pressure ( in mb ) Visibility ( mi km ) Precip ( " mm )
12:51 am 00:51 Clear 76 24.4 46 7.8 35 35 NW 6 9 29.85 1011 10 16 N/A
1:51 am 01:51 Clear 73 22.8 45 7.2 37 37 N N/A 29.85 1011 10 16 N/A
2:51 am 02:51 Clear 69 20.6 45 7.2 42 42 N N/A 29.85 1011 10 16 N/A
3:51 am 03:51 Clear 68 20 45 7.2 44 44 VRB 6 9 29.85 1011 10 16 N/A
4:51 am 04:51 Clear 67 19.4 44 6.7 44 44 N N/A 29.87 1012 10 16 N/A
5:51 am 05:51 Clear 67 19.4 46 7.8 47 47 N N/A 29.89 1012 10 16 N/A
6:51 am 06:51 Sunny 67 19.4 47 8.3 49 49 N N/A 29.91 1013 10 16 N/A
7:51 am 07:51 Sunny 77 25 47 8.3 35 35 N N/A 29.92 1013 10 16 N/A
8:51 am 08:51 Sunny 85 29.4 46 7.8 26 26 ESE 9 15 29.91 1013 10 16 N/A
9:51 am 09:51 Sunny 90 32.2 45 7.2 21 21 SE 9 15 29.90 1012 10 16 N/A
10:51 am 10:51 Sunny 94 34.4 44 6.7 18 18 ESE 8 13 29.88 1012 10 16 N/A
11:51 am 11:51 Sunny 96 35.6 44 6.7 17 17 ENE 6 9 29.84 1010 10 16 N/A
12:51 pm 12:51 Sunny 97 36.1 43 6.1 16 16 undefined N/A 29.80 1009 10 16 N/A
1:51 pm 13:51 Sunny 99 37.2 43 6.1 15 15 VRB 3 6 29.77 1008 10 16 N/A
2:51 pm 14:51 Sunny 100 37.8 42 5.6 14 14 SW 7 11 29.75 1008 10 16 N/A
3:51 pm 15:51 Sunny 100 37.8 42 5.6 14 14 N N/A 29.73 1007 10 16 N/A
4:51 pm 16:51 Sunny 99 37.2 42 5.6 14 14 NNE 8 13 29.73 1007 10 16 N/A
5:22 pm 17:22 Sunny with Nearby Thunderstorms 99 37 45 7 16 16 ENE 16 26 29.62 1003 10 16 N/A
5:37 pm 17:37 Sunny 98 36.7 43 6.1 15 15 ENE 14 22 29.62 1003 10 16 N/A
5:51 pm 17:51 Sunny 97 36.1 42 5.6 15 15 ESE 20 31 29.74 1007 10 16 N/A
6:51 pm 18:51 Clear 93 33.9 41 5 16 16 VRB 6 9 29.74 1007 10 16 N/A
7:51 pm 19:51 Clear 86 30 43 6.1 22 22 E 6 9 29.75 1007 10 16 N/A
8:51 pm 20:51 Clear 85 29.4 42 5.6 22 22 E 8 13 29.76 1008 10 16 N/A
9:51 pm 21:51 Clear 82 27.8 43 6.1 25 25 N N/A 29.78 1009 10 16 N/A
10:51 pm 22:51 Clear 78 25.6 44 6.7 30 30 E 6 9 29.80 1009 10 16 N/A
11:51 pm 23:51 Clear 78 25.6 45 7.2 31 31 E 9 15 29.80 1009 10 16 N/A

Powered by AerisWeather